Hlavní strana
METAR-TAF:

METAR-TAF

Letiště :

Shelbyville Municipal Airport

Shelbyville, Indiana, Spojené státy americké

zeměpisná šířka: 39-35-08N, zeměpisná délka: 085-48-00W, výška: 245 m

Aktuální stav počasí

Zpráva byla vytvořena před 1 hodinou a 23 minutami, v 02:53 UTC
Jihojihozápadní vítr 5 kt
Teplota -2°C
Vlhkost vzduchu 50%
Tlak 1031 hPa
Viditelnost: 16.1 km
Jasno

METAR: KGEZ 220253Z AUTO 20005KT 10SM CLR M02/M11 A3046 RMK AO2 SLP325 T10221111 56014

Čas: 23:16 (04:16 UTC)


TAF: chybějící

Stav a předpovědi počasí z více než 4 000 letišť (zprávy METAR a TAF).

Červené a žluté tečky na mapě představují dostupné meteorologické stanice.

Když kurzor umístíte na tečku, zobrazí se název stanice.

Pak kliknutím zobrazíte stav a předpověď počasí.

Chcete-li změnit mapu, kliknutím na zelené tlačítko se znaménkem +mapu přiblížíte, kliknutím na zelené tlačítko se znaménkem – mapu oddálíte a kliknutím na zelené šipky přejdete na sousední mapy.


METAR-TAF: